CAPE
0 0 0 0 0 0 0 0 0 0 0 0 0 0 31 58 35 3 74 80 195 261 775 917 402 188 36 0 0 0 0 29 120 124 126 149 112 55 0 0 0 0 0 0 0 0 0 0 0
0 0 0 0 0 0 0 0 0 0 0 0 0 0 0 3 52 226 169 267 325 391 776 872 447 229 66 0 0 0 9 12 66 119 110 46 16 1 0 0 0 0 0 0 0 0 0 0 0
0 0 0 0 0 0 0 0 0 0 0 0 0 0 0 0 4 95 116 445 307 296 778 964 533 330 119 7 0 2 0 4 44 134 102 35 16 0 0 0 0 0 0 0 0 0 0 0 0
0 0 0 0 0 0 0 0 0 0 0 0 0 0 0 0 0 62 298 548 119 253 665 1127 737 425 205 66 59 77 0 24 27 105 110 96 25 0 0 0 0 0 0 0 0 0 0 0 0
0 0 0 0 0 0 0 0 0 0 0 0 0 0 0 0 5 91 181 266 24 340 960 1297 858 469 303 224 236 278 186 102 45 21 63 60 12 0 0 0 0 0 0 0 0 0 0 0 0
0 0 0 0 0 0 0 0 0 0 0 0 0 0 0 0 0 144 69 36 100 145 850 1460 1171 620 461 291 349 400 324 222 187 120 46 37 19 6 0 0 0 0 0 0 0 0 0 0 0
0 0 0 0 0 0 0 0 0 0 0 0 0 0 0 0 0 67 175 27 71 357 801 1212 1449 1016 682 517 370 450 405 320 230 214 122 47 27 0 0 0 0 0 0 0 0 0 0 0 0
0 0 0 0 0 0 0 0 0 0 0 0 0 0 0 0 0 57 296 69 32 343 839 986 1131 1276 978 799 551 479 534 466 308 216 167 117 55 6 0 0 0 0 0 0 0 0 0 0 0
0 0 0 0 0 0 0 0 0 0 0 0 0 0 0 0 10 82 160 271 170 242 589 1087 925 921 892 943 946 708 702 683 523 382 285 156 80 26 0 0 0 0 0 0 0 0 0 0 0
0 0 0 0 0 0 0 0 0 0 0 0 0 0 0 0 0 29 251 400 441 348 328 748 931 835 841 998 1238 1094 1030 1110 950 755 594 268 74 20 0 0 0 0 0 0 0 0 0 0 0
0 0 0 0 0 0 0 0 0 0 0 0 0 0 0 0 0 0 1 74 573 716 435 507 831 881 864 936 1226 1142 1134 1169 1091 966 696 330 125 29 1 0 0 0 0 0 0 0 0 0 0
0 0 0 0 0 0 0 0 0 0 0 0 0 0 0 0 0 0 0 0 16 778 810 463 567 697 923 1023 1005 1016 1145 1162 1043 1010 758 363 138 2 0 0 0 0 0 0 0 0 0 0 0
0 0 0 0 0 0 0 0 0 0 0 0 0 0 0 0 0 0 0 0 0 332 1032 826 397 417 566 770 862 851 1137 1039 911 792 761 504 216 6 0 0 0 0 0 0 0 0 0 0 0
0 0 0 0 0 0 0 0 0 0 0 0 0 0 0 0 0 0 0 0 0 42 483 1055 806 341 290 377 472 473 766 774 692 628 666 569 295 57 0 0 0 0 11 34 18 16 4 3 0
0 0 0 0 0 0 0 0 0 0 0 0 0 0 0 0 0 0 0 0 3 25 200 580 1029 898 436 339 434 337 356 460 461 388 456 443 266 76 0 0 0 0 30 73 73 53 68 68 30
0 0 0 0 0 0 0 0 0 0 0 0 0 0 0 0 0 0 0 0 0 24 107 458 991 1009 944 571 586 442 182 145 207 213 218 143 72 9 0 0 0 0 29 129 184 213 323 266 150
0 0 0 0 0 0 0 0 0 0 0 0 0 0 0 0 0 0 0 0 0 2 35 270 668 814 920 771 722 609 523 370 242 178 204 155 167 52 10 0 0 36 85 197 305 370 380 247 104
0 0 0 0 0 0 0 0 0 0 0 0 0 0 0 0 0 0 0 0 0 0 2 146 487 932 981 1135 1121 1086 1012 717 474 459 483 460 344 262 110 83 36 109 269 337 353 362 318 266 226
0 0 0 0 0 0 0 0 0 0 0 0 0 0 0 0 0 0 0 0 0 0 0 0 239 714 1249 1286 1414 1460 1420 1257 852 714 421 358 696 629 444 418 546 439 339 452 508 468 459 402 320
0 0 0 0 0 0 0 0 0 0 0 0 0 0 0 0 0 0 0 0 0 0 0 0 93 515 1146 1536 1502 1524 1503 1311 1192 832 693 654 939 1188 1201 890 584 764 1002 970 727 668 619 440 316
0 0 0 0 0 0 0 0 0 0 0 0 0 0 0 0 0 0 0 0 0 0 0 0 2 152 412 1084 1276 896 690 977 961 846 887 715 661 585 595 462 793 884 935 865 824 806 618 553 407
0 0 0 0 0 0 0 0 0 0 0 0 0 0 0 0 0 0 0 0 0 0 0 0 0 0 4 158 460 816 1131 1066 886 436 553 623 548 132 42 3 37 276 580 625 687 790 768 526 313
0 0 0 0 0 0 0 0 0 0 0 0 0 0 0 0 0 0 0 0 0 0 0 0 0 0 0 0 0 0 31 181 240 130 119 284 504 326 371 75 3 17 39 527 491 458 472 383 282
0 0 0 0 0 0 0 0 0 0 0 0 0 0 0 0 0 0 0 0 0 0 0 0 0 0 0 0 0 0 0 0 0 0 0 34 122 314 581 792 550 307 374 365 144 136 271 222 236
0 0 0 0 0 0 0 0 0 0 0 0 0 0 0 0 0 0 0 0 0 0 0 0 0 0 0 0 0 3 0 0 0 0 0 0 1 45 118 228 672 788 559 295 108 79 31 88 44
0 0 0 0 0 0 0 0 0 0 0 0 0 0 0 0 0 0 0 0 0 0 0 0 7 16 17 33 2 0 0 0 0 0 0 0 0 0 20 14 47 262 741 824 703 522 318 217 243
0 0 0 0 0 0 0 0 0 0 0 0 0 0 0 0 0 0 0 0 17 58 16 0 1 0 0 0 0 0 0 0 0 0 0 0 0 22 256 362 343 249 206 424 591 559 419 381 310
0 0 0 0 0 0 0 0 0 0 0 0 0 0 0 0 0 0 0 0 2 0 0 0 0 0 0 0 0 0 0 0 0 0 0 0 16 191 182 228 365 378 319 301 316 255 313 351 380
0 0 0 0 0 0 0 0 0 0 0 0 0 0 0 0 0 0 0 0 0 0 0 0 0 0 0 0 3 35 12 7 5 2 0 0 24 25 52 16 1 3 122 121 105 86 70 93 125
0 0 0 0 0 0 0 0 0 0 0 0 0 0 0 0 0 0 0 0 0 0 0 0 0 0 0 0 2 23 56 45 0 31 7 0 0 0 0 0 0 0 0 0 0 2 37 90 75
CIN
-0 -0 -0 -0 -0 -0 -0 -0 -0 -0 -0 -0 -0 -0 -136 -195 -173 -37 -534 -562 -566 -622 -487 -397 -477 -531 -572 -0 -0 -0 -0 -559 -439 -423 -403 -375 -362 -384 -0 -0 -0 -0 -0 -0 -0 -0 -0 -0 -0
-0 -0 -0 -0 -0 -0 -0 -0 -0 -0 -0 -0 -0 -0 -0 -85 -253 -306 -345 -496 -554 -564 -487 -426 -475 -515 -543 -0 -0 -0 -556 -563 -528 -432 -428 -486 -449 -72 -0 -0 -0 -0 -0 -0 -0 -0 -0 -0 -0
-0 -0 -0 -0 -0 -0 -0 -0 -0 -0 -0 -0 -0 -0 -0 -0 -97 -180 -364 -398 -533 -561 -477 -420 -459 -491 -531 -563 -0 -169 -0 -413 -565 -442 -445 -457 -475 -0 -0 -0 -0 -0 -0 -0 -0 -0 -0 -0 -0
-0 -0 -0 -0 -0 -0 -0 -0 -0 -0 -0 -0 -0 -0 -0 -0 -0 -212 -328 -398 -518 -529 -459 -368 -403 -456 -498 -538 -516 -486 -0 -535 -510 -434 -408 -422 -486 -0 -0 -0 -0 -0 -0 -0 -0 -0 -0 -0 -0
-0 -0 -0 -0 -0 -0 -0 -0 -0 -0 -0 -0 -0 -0 -0 -0 -32 -236 -288 -395 -530 -482 -382 -319 -371 -433 -474 -462 -457 -411 -426 -468 -470 -487 -434 -442 -539 -0 -0 -0 -0 -0 -0 -0 -0 -0 -0 -0 -0
-0 -0 -0 -0 -0 -0 -0 -0 -0 -0 -0 -0 -0 -0 -0 -0 -0 -186 -303 -477 -535 -503 -377 -249 -307 -396 -438 -498 -450 -413 -402 -394 -398 -424 -462 -475 -548 -367 -0 -0 -0 -0 -0 -0 -0 -0 -0 -0 -0
-0 -0 -0 -0 -0 -0 -0 -0 -0 -0 -0 -0 -0 -0 -0 -0 -0 -196 -228 -460 -510 -461 -364 -294 -212 -302 -345 -422 -490 -433 -423 -403 -396 -396 -417 -486 -531 -0 -0 -0 -0 -0 -0 -0 -0 -0 -0 -0 -0
-0 -0 -0 -0 -0 -0 -0 -0 -0 -0 -0 -0 -0 -0 -0 -0 -0 -208 -251 -355 -495 -418 -326 -314 -301 -238 -289 -327 -382 -434 -405 -405 -411 -422 -435 -454 -520 -177 -0 -0 -0 -0 -0 -0 -0 -0 -0 -0 -0
-0 -0 -0 -0 -0 -0 -0 -0 -0 -0 -0 -0 -0 -0 -0 -0 -95 -172 -230 -304 -398 -441 -375 -276 -318 -310 -294 -282 -273 -323 -318 -324 -369 -393 -418 -455 -532 -593 -0 -0 -0 -0 -0 -0 -0 -0 -0 -0 -0
-0 -0 -0 -0 -0 -0 -0 -0 -0 -0 -0 -0 -0 -0 -0 -0 -0 -105 -110 -144 -255 -347 -423 -353 -303 -321 -286 -247 -216 -218 -222 -202 -245 -307 -355 -455 -564 -637 -0 -0 -0 -0 -0 -0 -0 -0 -0 -0 -0
-0 -0 -0 -0 -0 -0 -0 -0 -0 -0 -0 -0 -0 -0 -0 -0 -0 -0 -15 -127 -139 -277 -370 -401 -346 -305 -304 -247 -180 -210 -198 -193 -204 -238 -330 -443 -543 -614 -99 -0 -0 -0 -0 -0 -0 -0 -0 -0 -0
-0 -0 -0 -0 -0 -0 -0 -0 -0 -0 -0 -0 -0 -0 -0 -0 -0 -0 -0 -0 -30 -198 -269 -386 -368 -328 -247 -241 -219 -195 -206 -223 -232 -232 -282 -429 -557 -183 -0 -0 -0 -0 -0 -0 -0 -0 -0 -0 -0
-0 -0 -0 -0 -0 -0 -0 -0 -0 -0 -0 -0 -0 -0 -0 -0 -0 -0 -0 -0 -0 -135 -188 -255 -339 -356 -332 -299 -270 -251 -190 -233 -292 -277 -275 -352 -510 -176 -0 -0 -0 -0 -0 -0 -0 -0 -0 -0 -0
-0 -0 -0 -0 -0 -0 -0 -0 -0 -0 -0 -0 -0 -0 -0 -0 -0 -0 -0 -0 -0 -109 -133 -201 -281 -348 -386 -351 -365 -376 -295 -285 -298 -307 -305 -335 -417 -609 -0 -0 -0 -0 -613 -561 -591 -545 -370 -207 -0
-0 -0 -0 -0 -0 -0 -0 -0 -0 -0 -0 -0 -0 -0 -0 -0 -0 -0 -0 -0 -125 -177 -145 -170 -206 -303 -340 -368 -383 -430 -400 -319 -306 -340 -358 -353 -407 -525 -1 -0 -0 -0 -515 -490 -517 -506 -463 -467 -507
-0 -0 -0 -0 -0 -0 -0 -0 -0 -0 -0 -0 -0 -0 -0 -0 -0 -0 -0 -0 -26 -148 -155 -154 -190 -246 -250 -275 -341 -385 -425 -373 -365 -346 -402 -432 -469 -566 -0 -0 -0 -0 -438 -398 -396 -375 -319 -330 -392
-0 -0 -0 -0 -0 -0 -0 -0 -0 -0 -0 -0 -0 -0 -0 -0 -0 -0 -0 -0 -0 -40 -136 -152 -161 -173 -199 -221 -237 -269 -297 -279 -219 -216 -270 -401 -434 -499 -545 -0 -0 -511 -405 -355 -333 -305 -310 -308 -370
-0 -0 -0 -0 -0 -0 -0 -0 -0 -0 -0 -0 -0 -0 -0 -0 -0 -0 -0 -0 -0 -0 -34 -162 -178 -173 -196 -202 -217 -223 -204 -184 -151 -155 -143 -182 -218 -326 -368 -436 -485 -435 -308 -312 -338 -313 -317 -299 -303
-0 -0 -0 -0 -0 -0 -0 -0 -0 -0 -0 -0 -0 -0 -0 -0 -0 -0 -0 -0 -0 -0 -0 -0 -183 -188 -156 -152 -133 -130 -105 -122 -128 -109 -157 -132 -115 -176 -240 -205 -243 -293 -239 -234 -221 -256 -234 -252 -293
-0 -0 -0 -0 -0 -0 -0 -0 -0 -0 -0 -0 -0 -0 -0 -0 -0 -0 -0 -0 -0 -0 -0 -0 -252 -239 -203 -154 -157 -126 -123 -126 -105 -139 -154 -131 -58 -115 -102 -103 -142 -152 -85 -86 -95 -161 -165 -199 -256
-0 -0 -0 -0 -0 -0 -0 -0 -0 -0 -0 -0 -0 -0 -0 -0 -0 -0 -0 -0 -0 -0 -0 -0 -35 -272 -251 -197 -189 -219 -208 -149 -98 -87 -89 -131 -132 -122 -128 -179 -59 -67 -50 -36 -49 -80 -114 -120 -183
-0 -0 -0 -0 -0 -0 -0 -0 -0 -0 -0 -0 -0 -0 -0 -0 -0 -0 -0 -0 -0 -0 -0 -0 -0 -0 -48 -265 -199 -154 -108 -92 -141 -146 -149 -121 -145 -137 -194 -37 -62 -54 -60 -42 -24 -40 -61 -107 -160
-0 -0 -0 -0 -0 -0 -0 -0 -0 -0 -0 -0 -0 -0 -0 -0 -0 -0 -0 -0 -0 -0 -0 -0 -0 -0 -0 -0 -0 -0 -205 -245 -261 -303 -273 -157 -98 -125 -109 -123 -217 -140 -103 -14 -32 -40 -65 -113 -126
-0 -0 -0 -0 -0 -0 -0 -0 -0 -0 -0 -0 -0 -0 -0 -0 -0 -0 -0 -0 -0 -0 -0 -0 -0 -0 -0 -0 -0 -0 -0 -0 -0 -0 -0 -294 -236 -139 -80 -54 -36 -34 -42 -86 -91 -125 -67 -76 -89
-0 -0 -0 -0 -0 -0 -0 -0 -0 -0 -0 -0 -0 -0 -0 -0 -0 -0 -0 -0 -0 -0 -0 -0 -0 -135 -0 -15 -0 -193 -27 -0 -0 -0 -0 -0 -57 -292 -248 -185 -65 -44 -31 -29 -61 -96 -138 -92 -65
-0 -0 -0 -0 -0 -0 -0 -0 -0 -0 -0 -0 -0 -0 -0 -0 -0 -0 -0 -0 -0 -30 -0 -0 -395 -349 -400 -352 -313 -16 -0 -0 -0 -0 -0 -0 -0 -0 -363 -323 -301 -192 -108 -83 -89 -75 -110 -149 -160
-0 -0 -0 -0 -0 -0 -0 -0 -0 -0 -0 -0 -0 -0 -0 -0 -0 -0 -0 -0 -495 -417 -414 -0 -272 -0 -0 -0 -0 -0 -0 -0 -0 -0 -0 -0 -0 -171 -176 -145 -153 -174 -144 -81 -84 -86 -86 -75 -45
-0 -0 -0 -0 -0 -0 -0 -0 -0 -0 -0 -0 -0 -0 -0 -0 -0 -0 -0 -0 -183 -0 -0 -0 -0 -0 -0 -0 -0 -0 -0 -0 -0 -0 -0 -0 -128 -77 -83 -86 -75 -88 -96 -87 -55 -110 -95 -64 -31
-0 -0 -0 -0 -0 -0 -0 -0 -0 -0 -0 -0 -0 -0 -0 -0 -0 -0 -0 -0 -0 -0 -0 -0 -0 -0 -0 -0 -78 -212 -180 -139 -77 -19 -0 -0 -21 -83 -92 -175 -73 -37 -124 -139 -125 -141 -173 -116 -70
-0 -0 -0 -0 -0 -0 -0 -0 -0 -0 -0 -0 -0 -0 -0 -0 -0 -0 -0 -0 -0 -0 -0 -0 -0 -0 -0 -0 -226 -161 -133 -133 -2 -82 -93 -0 -0 -0 -0 -0 -0 -0 -0 -0 -7 -177 -158 -105 -114
Wind_Speed
27 28 23 19 22 23 19 15 15 19 17 16 17 14 6 12 16 20 17 8 9 16 17 16 17 18 17 17 19 21 22 23 24 25 25 25 25 25 25 25 26 27 27 26 26 26 25 25 24
27 24 19 20 21 22 22 19 18 19 18 19 16 14 12 13 14 12 8 4 8 13 16 16 17 17 16 16 18 19 20 22 23 24 24 24 24 24 24 25 26 26 26 25 25 24 24 24 23
25 21 22 23 24 25 22 15 22 22 19 20 14 14 14 12 14 12 9 4 8 9 10 12 15 14 15 16 17 18 19 21 22 23 22 22 22 23 24 24 24 25 25 24 23 24 24 23 23
23 22 21 27 28 28 23 24 24 25 18 18 16 14 13 16 16 13 5 3 4 4 8 10 12 13 13 14 15 17 18 19 20 20 20 21 21 20 22 22 22 23 23 23 23 22 22 22 22
21 22 32 32 33 27 25 28 27 28 20 15 14 14 15 16 16 10 5 2 2 1 2 7 11 12 12 11 12 13 14 16 16 16 17 18 18 18 19 20 20 19 20 21 21 20 20 20 20
25 23 31 39 35 32 29 28 29 27 23 17 17 15 15 15 13 9 8 5 3 2 3 4 8 12 13 13 11 11 12 12 14 14 15 15 16 16 17 16 17 16 17 18 19 18 18 18 18
25 27 28 29 33 37 30 26 29 34 33 25 22 18 17 18 17 7 7 8 7 6 4 5 6 7 9 10 12 12 12 12 12 12 13 13 13 14 14 14 14 14 14 15 15 15 16 16 16
21 25 28 30 34 41 28 28 27 32 41 33 23 21 21 17 14 10 10 9 9 9 9 7 7 8 8 9 10 12 12 13 13 13 13 13 12 12 13 12 12 11 11 11 12 13 14 14 15
17 30 33 32 32 35 30 32 29 27 32 35 29 24 17 13 11 10 11 13 14 12 11 10 9 10 11 10 10 11 11 11 12 12 12 11 10 9 8 10 9 9 10 9 9 10 12 13 13
22 30 32 28 29 35 35 32 35 34 37 33 30 21 10 12 13 13 13 13 13 14 15 13 11 11 13 14 14 13 12 11 10 9 9 8 9 9 8 7 7 7 8 7 7 9 10 11 11
23 32 29 30 30 32 36 36 32 35 39 32 33 19 18 16 14 12 14 13 13 12 11 13 12 11 13 17 18 17 16 15 14 12 10 9 8 7 6 5 3 3 4 4 6 8 9 9 9
29 29 29 31 33 35 39 36 38 33 39 37 36 28 19 19 17 15 12 12 13 13 15 15 15 14 17 16 18 22 21 19 18 17 14 12 10 9 8 6 5 3 1 2 6 9 9 8 7
26 28 30 31 31 33 35 38 39 45 35 36 38 34 25 20 22 20 14 11 8 10 10 12 13 17 19 18 20 23 25 24 23 21 19 17 15 13 11 9 7 5 3 2 6 9 10 10 9
23 29 30 28 30 28 31 37 32 29 26 27 28 31 33 31 27 26 23 18 12 8 6 7 9 14 18 22 22 25 28 28 27 27 25 22 20 18 16 15 12 10 7 8 9 8 11 11 11
26 33 32 28 27 28 29 41 40 35 28 31 33 35 36 38 32 28 24 21 16 15 12 11 12 13 14 22 24 23 28 33 31 30 27 27 25 23 23 21 19 16 15 13 16 14 14 12 12
29 28 33 26 26 30 27 42 37 38 37 40 38 35 35 36 35 32 28 24 21 17 16 15 15 16 16 19 27 28 31 28 33 34 33 32 32 29 28 26 25 24 21 20 19 18 18 18 15
24 29 31 31 22 25 25 37 27 31 31 38 41 40 35 33 34 33 28 26 22 21 20 20 18 17 18 21 24 28 29 30 27 32 38 40 39 35 37 33 32 28 26 25 23 22 20 21 19
18 22 26 29 25 30 33 39 37 36 35 37 38 39 37 33 31 31 30 29 28 24 22 23 22 22 21 22 23 25 27 30 30 30 33 36 39 36 37 39 38 32 33 27 26 25 24 24 22
25 29 33 35 37 31 33 43 40 36 37 36 36 36 34 35 33 30 29 29 31 30 27 25 23 23 22 24 24 27 28 29 30 30 28 34 38 35 33 34 35 35 37 33 28 26 26 27 25
25 29 37 36 34 29 35 47 42 35 31 33 35 35 32 31 33 32 29 28 28 29 25 24 24 23 25 24 25 26 28 31 31 31 31 26 28 31 34 39 38 36 40 37 32 30 29 29 25
26 25 31 29 31 29 36 43 38 31 32 34 34 35 37 38 39 37 34 32 28 27 25 23 22 21 21 22 23 25 26 27 30 31 32 31 27 24 31 35 41 37 37 41 38 34 30 31 29
28 27 28 31 34 38 30 56 35 29 32 31 34 38 43 43 42 41 40 35 31 28 24 23 21 20 20 20 24 28 31 32 30 28 28 31 33 35 36 41 48 40 41 42 43 38 31 28 28
26 32 32 34 36 37 35 42 39 27 32 37 37 37 38 38 38 38 39 40 35 30 25 24 21 21 20 20 22 25 30 32 33 32 31 32 31 31 31 34 34 41 43 45 36 35 31 28 28
29 30 31 30 31 38 35 35 44 34 36 38 36 40 37 34 36 36 39 40 34 29 28 24 23 22 20 20 21 24 28 32 36 37 39 32 29 29 29 28 32 31 35 30 32 34 30 25 32
25 30 34 37 34 36 32 39 38 34 40 41 41 41 43 42 39 39 39 33 27 26 24 23 22 22 19 19 22 25 29 32 37 38 38 38 38 35 29 25 27 28 27 36 42 42 43 38 39
25 24 28 32 36 40 40 36 35 33 37 37 34 34 38 43 41 37 30 23 21 22 23 22 21 21 19 21 24 26 29 33 36 38 39 40 38 35 33 32 31 32 32 35 37 38 42 45 44
25 28 27 35 36 37 34 35 37 29 29 35 36 36 37 37 35 31 25 16 10 13 14 19 21 22 21 19 21 24 26 28 32 33 33 33 32 33 32 31 29 28 29 28 28 35 41 42 43
24 24 33 32 33 34 31 33 35 36 38 41 41 42 38 36 31 28 25 17 13 14 17 20 21 22 20 18 18 20 21 24 26 27 29 30 29 28 29 28 28 28 29 29 31 30 33 36 36
26 28 27 25 24 32 36 32 25 36 44 45 40 35 39 41 30 23 22 18 18 18 23 26 23 28 24 19 17 17 16 15 22 23 24 25 25 26 26 26 27 28 29 30 33 34 37 39 36
22 23 20 23 28 28 34 41 36 33 41 40 40 43 48 43 40 25 23 18 20 23 25 27 25 29 33 26 18 17 17 17 17 22 24 23 22 22 23 24 27 29 30 31 33 35 35 39 38
Wind_Direction
301 297 308 296 271 262 273 282 292 314 311 319 320 314 322 313 294 288 296 100 75 118 120 118 113 109 104 100 100 103 104 106 108 109 108 105 104 100 97 96 97 99 100 97 95 93 92 87 84
300 306 303 280 272 264 264 267 277 309 309 307 309 320 317 310 317 317 342 34 96 117 120 121 119 113 108 104 103 104 105 108 109 109 108 106 104 102 100 100 100 102 101 97 92 85 86 87 87
297 306 283 271 267 260 263 269 279 296 309 316 300 316 312 314 318 310 318 60 103 119 122 124 124 117 114 110 109 107 107 108 111 111 108 105 103 104 105 103 102 102 103 98 93 88 91 87 82
290 288 286 267 265 262 264 271 284 287 308 318 304 303 310 306 305 308 345 15 112 125 128 133 130 126 121 118 114 114 112 111 112 111 108 107 106 104 107 105 102 101 101 100 102 94 88 81 77
291 282 268 267 265 267 272 276 286 278 301 306 321 302 301 303 306 310 323 325 149 205 198 141 139 136 132 127 121 120 118 117 113 110 109 110 107 106 106 107 104 98 99 101 102 96 84 78 81
274 278 269 264 268 267 275 278 277 277 287 300 298 297 302 309 308 309 301 292 268 207 219 196 151 146 143 141 137 133 129 125 121 115 114 113 111 110 109 105 104 96 95 97 100 92 88 83 91
271 270 272 273 272 269 270 280 279 270 275 291 296 277 290 298 295 295 297 285 275 264 231 214 214 178 167 158 153 150 144 140 134 127 122 120 118 115 113 107 102 97 91 89 90 82 73 75 87
280 275 273 272 270 266 274 277 282 279 266 283 289 280 277 287 298 290 296 286 272 266 258 236 223 220 193 185 178 169 162 156 150 143 137 132 127 123 120 114 108 101 94 79 72 64 71 79 71
286 270 270 272 272 271 277 277 278 287 281 279 284 282 278 277 293 301 294 286 276 267 258 253 239 229 224 216 212 196 190 180 170 160 153 147 140 134 126 122 113 108 107 85 67 56 52 45 59
274 272 273 281 279 274 275 277 273 279 279 280 284 297 274 282 288 286 287 282 274 268 259 252 249 242 242 238 229 228 223 226 219 202 185 176 163 153 146 137 130 121 119 98 56 33 39 34 56
281 272 281 281 281 277 274 277 274 276 272 279 279 293 284 278 282 287 290 289 275 268 253 249 249 251 246 247 241 237 235 234 236 231 211 203 195 188 179 166 157 132 120 81 19 13 21 40 55
280 282 284 286 282 279 272 277 272 275 272 278 280 289 287 278 281 282 288 294 290 276 261 254 250 253 258 255 247 249 242 238 240 241 236 227 222 213 209 211 198 194 198 360 348 352 5 28 52
287 288 287 288 288 284 281 276 277 269 280 280 276 279 286 287 286 286 285 288 293 288 266 252 246 251 252 257 256 254 250 244 243 244 244 245 245 235 232 236 244 235 270 296 327 335 345 356 16
295 292 291 292 290 291 285 279 281 284 287 282 279 280 281 285 287 284 278 275 276 274 254 231 232 248 253 257 256 256 253 249 246 245 246 246 251 252 250 251 253 261 271 294 306 321 328 337 347
298 291 292 293 294 290 291 276 274 283 287 281 279 278 279 279 283 282 275 265 272 273 257 249 251 248 243 260 263 260 256 252 250 248 246 248 249 253 257 258 259 263 274 284 294 305 313 323 331
297 296 290 295 295 291 286 277 285 287 286 282 285 283 282 282 278 279 274 267 266 268 265 263 264 257 255 260 266 263 259 258 252 255 254 249 250 252 255 259 261 266 271 276 283 292 300 307 316
303 293 292 294 303 298 290 286 294 296 297 285 289 285 283 284 279 279 277 270 264 263 266 267 266 262 260 265 268 262 259 256 257 258 260 258 257 254 255 258 262 265 267 272 277 284 292 299 307
319 312 303 297 300 300 289 286 291 294 295 292 292 287 282 286 284 281 278 274 270 268 265 267 268 268 266 270 269 265 260 259 259 263 260 261 260 259 256 258 259 264 267 269 273 277 284 292 300
308 304 297 293 286 300 293 285 290 296 293 293 295 295 289 283 286 286 284 279 276 271 265 261 262 267 266 267 265 264 259 261 262 261 264 260 264 262 262 263 262 261 264 267 272 275 279 285 293
309 305 296 297 298 299 296 285 290 296 298 295 296 296 297 293 291 291 289 283 279 275 265 259 262 265 267 265 266 266 263 265 266 265 268 265 253 258 263 265 265 264 263 266 271 273 277 282 287
309 310 306 305 305 301 300 292 296 299 298 297 295 295 290 288 286 286 286 284 282 274 265 259 259 261 265 266 266 269 270 270 267 270 266 264 267 266 266 268 268 260 266 266 270 271 275 280 284
306 308 307 305 303 298 302 272 298 303 301 301 298 295 292 288 289 287 286 284 279 272 265 259 256 257 262 266 267 267 266 266 269 273 275 271 269 273 277 269 267 273 274 271 268 270 273 279 282
311 309 308 306 302 301 298 294 299 303 300 301 300 303 301 297 295 292 290 284 281 270 258 253 252 256 264 271 271 269 267 269 273 275 275 276 274 273 275 269 267 263 267 261 265 268 271 278 282
313 315 314 312 307 296 300 295 295 296 299 303 303 303 301 301 299 296 294 289 276 270 256 250 247 254 264 273 274 275 275 274 274 274 274 275 274 274 277 275 272 269 258 261 270 274 279 284 280
312 313 311 307 303 299 308 299 297 302 302 303 304 303 299 297 299 299 300 298 270 257 244 243 244 253 263 270 275 280 281 279 275 275 275 276 275 275 279 281 276 272 270 272 273 275 275 278 277
313 312 310 307 306 302 302 298 302 308 309 310 313 313 311 302 296 298 300 305 283 258 242 243 248 257 264 274 279 283 285 282 280 277 275 273 274 277 280 280 281 283 283 280 276 274 272 275 277
316 309 316 309 307 305 304 303 304 312 317 318 317 320 319 319 303 296 300 301 295 232 226 243 253 263 268 275 282 285 289 288 284 280 278 277 276 277 278 280 281 285 284 285 286 280 278 279 281
309 313 309 308 307 304 307 305 304 310 314 316 313 313 317 315 314 302 292 293 275 269 265 260 258 263 267 274 280 290 292 289 288 282 278 277 278 277 278 280 282 284 285 287 289 290 287 288 289
311 309 310 309 305 307 308 308 319 317 315 312 314 313 312 300 308 307 287 286 288 288 277 271 268 267 269 273 282 288 288 288 288 286 283 279 280 279 280 280 283 284 285 287 289 288 286 285 290
314 311 311 306 310 307 308 302 313 316 316 315 310 303 295 289 276 297 288 289 290 289 286 280 275 269 269 274 279 278 281 283 284 286 285 282 282 283 281 282 283 285 286 288 287 287 287 283 285